Weather History for Guernsey, United Kingdom

Change the Weather History Date:

Friday, September 21, 2012

  Actual Average Record
Temperature  
Mean Temperature 56 °F -  
Max Temperature 62 °F 59 °F 73 °F (2006)
Min Temperature 50 °F 52 °F 50 °F (2008)
Degree Days  
Heating Degree Days 9    
Growing Degree Days 6 (Base 50)    
Moisture  
Dew Point 51 °F    
Average Humidity 79    
Maximum Humidity 88    
Minimum Humidity 63    
Precipitation  
Precipitation 0.00 in - - ()
Sea Level Pressure  
Sea Level Pressure 29.99 in    
Wind  
Wind Speed 4 mph ()    
Max Wind Speed 8 mph    
Max Gust Speed -    
Visibility 6.2 miles    
Events      
Averages and records for this station are not official NWS values.
T = Trace of Precipitation, MM = Missing Value Source: Averaged Metar Reports

Daily Weather History Graph

Daily Weather History Graph

Search for Another Location

Airport:

Trip Planner

Search our weather history database for the weather conditions in past years. The results will help you decide how hot, cold, wet, or windy it might be!

Date:

Astronomy

Sep. 21, 2012 Rise Set
Actual Time 6:55 AM BST 7:09 PM BST
Civil Twilight 6:23 AM BST 7:41 PM BST
Nautical Twilight 5:46 AM BST 8:19 PM BST
Astronomical Twilight 5:06 AM BST 8:58 PM BST
Moon 1:36 PM BST (9/21) 10:21 PM BST (9/21)
Length of Visible Light 13h 17m
Length of Day
12h 14m
Waxing Crescent, 35% of the Moon is Illuminated
Sep 21
Waxing Crescent
Sep 22
First Quarter
Sep 30
Full
Oct 8
Last Quarter
Oct 15
New

Hourly Weather History & Observations

Time (BST) Temp. Dew Point Humidity Pressure Visibility Wind Dir Wind Speed Gust Speed Precip Events Conditions
1:00 AM 54 °F 49 °F 76% 30.08 in 34 mi ESE 5.8 mph - -   Clear
3:50 AM 53.6 °F 50.0 °F 88% 30.04 in - Calm Calm - N/A   Clear
4:00 AM 54 °F 50 °F 81% 30.04 in 31 mi Calm Calm - -   Clear
4:20 AM 53.6 °F 50.0 °F 88% 30.01 in - East 3.5 mph - N/A   Clear
4:50 AM 51.8 °F 48.2 °F 88% 30.01 in - ESE 3.5 mph - N/A   Clear
5:20 AM 53.6 °F 50.0 °F 88% 30.01 in - East 3.5 mph - N/A   Clear
5:50 AM 51.8 °F 48.2 °F 88% 29.98 in - NNE 2.3 mph - N/A   Clear
6:20 AM 53.6 °F 50.0 °F 88% 29.98 in - NNE 3.5 mph - N/A   Clear
6:50 AM 53.6 °F 50.0 °F 88% 29.98 in - NE 3.5 mph - N/A   Clear
7:00 AM 53 °F 50 °F 86% 29.99 in 28 mi NE 3.5 mph - -   Scattered Clouds
7:20 AM 53.6 °F 50.0 °F 88% 29.98 in - Calm Calm - N/A   Clear
7:50 AM 53.6 °F 50.0 °F 88% 29.98 in - Variable 2.3 mph - N/A   Clear
8:20 AM 55.4 °F 51.8 °F 88% 29.98 in - Variable 2.3 mph - N/A   Clear
8:50 AM 57.2 °F 53.6 °F 88% 29.98 in - Calm Calm - N/A   Clear
9:20 AM 59.0 °F 51.8 °F 77% 29.98 in - NNE 2.3 mph - N/A   Clear
9:50 AM 60.8 °F 53.6 °F 77% 29.98 in - NNE 4.6 mph - N/A   Clear
10:00 AM 60 °F 53 °F 71% 30.00 in 28 mi NNE 4.6 mph - -   Scattered Clouds
10:20 AM 60.8 °F 51.8 °F 72% 30.01 in - Variable 3.5 mph - N/A   Clear
10:50 AM 60.8 °F 51.8 °F 72% 29.98 in 6.2 mi North 4.6 mph - N/A   Partly Cloudy
11:20 AM 60.8 °F 51.8 °F 72% 29.98 in 6.2 mi North 5.8 mph - N/A   Partly Cloudy
11:50 AM 60.8 °F 48.2 °F 63% 29.98 in 6.2 mi North 6.9 mph - N/A   Partly Cloudy
12:20 PM 60.8 °F 51.8 °F 72% 29.98 in 6.2 mi NNE 6.9 mph - N/A   Partly Cloudy
12:50 PM 60.8 °F 53.6 °F 77% 29.98 in 6.2 mi North 8.1 mph - N/A   Partly Cloudy
1:00 PM 61 °F 53 °F 68% 29.98 in 28 mi North 8.1 mph - -   Scattered Clouds
1:20 PM 60.8 °F 53.6 °F 77% 29.98 in 6.2 mi North 6.9 mph - N/A   Partly Cloudy
1:50 PM 60.8 °F 51.8 °F 72% 29.98 in 6.2 mi North 6.9 mph - N/A   Partly Cloudy
2:20 PM 62.6 °F 51.8 °F 68% 29.98 in 6.2 mi NNE 5.8 mph - N/A   Partly Cloudy
2:50 PM 60.8 °F 50.0 °F 68% 29.98 in 6.2 mi NNW 5.8 mph - N/A   Partly Cloudy
3:20 PM 60.8 °F 51.8 °F 72% 29.95 in 6.2 mi NNW 6.9 mph - N/A   Partly Cloudy
3:50 PM 59.0 °F 50.0 °F 72% 29.95 in 6.2 mi NNW 8.1 mph - N/A   Partly Cloudy
4:00 PM 59 °F 50 °F 65% 29.96 in 28 mi NNW 8.1 mph - -   Overcast
4:20 PM 59.0 °F 51.8 °F 77% 29.95 in 6.2 mi North 6.9 mph - N/A   Partly Cloudy
4:50 PM 57.2 °F 53.6 °F 88% 29.95 in 6.2 mi North 8.1 mph - N/A   Partly Cloudy
5:20 PM 57.2 °F 53.6 °F 88% 29.95 in 6.2 mi North 6.9 mph - N/A   Partly Cloudy
5:50 PM 57.2 °F 51.8 °F 82% 29.98 in 6.2 mi North 4.6 mph - N/A   Partly Cloudy
6:20 PM 57.2 °F 51.8 °F 82% 29.98 in 6.2 mi NNW 8.1 mph - N/A   Partly Cloudy
6:50 PM 57.2 °F 50.0 °F 77% 29.98 in 6.2 mi NNW 4.6 mph - N/A   Partly Cloudy
7:00 PM 56 °F 50 °F 75% 29.99 in 34 mi NNW 4.6 mph - -   Scattered Clouds
7:20 PM 55.4 °F 48.2 °F 77% 29.98 in 6.2 mi NW 4.6 mph - N/A   Partly Cloudy
7:50 PM 53.6 °F 46.4 °F 77% 29.98 in 6.2 mi NNW 5.8 mph - N/A   Partly Cloudy
8:20 PM 53.6 °F 48.2 °F 82% 29.98 in 6.2 mi NNW 6.9 mph - N/A   Partly Cloudy
8:50 PM 53.6 °F 50.0 °F 88% 29.98 in 6.2 mi NW 5.8 mph - N/A   Partly Cloudy
10:00 PM 53 °F 50 °F 85% 30.02 in 37 mi NW 5.8 mph - -   Scattered Clouds